Time,TemperatureF,DewpointF,PressureIn,WindDirection,WindDirectionDegrees,WindSpeedMPH,WindSpeedGustMPH,Humidity,HourlyPrecipIn,Conditions,Clouds,dailyrainin,SoftwareType,DateUTC
2013-03-16 00:00:00,48.3,34.2,29.78,North,360,0.0,0.0,58,0.00,CLR,,0.00,WeatherDisplay:10.37,2013-03-16 04:00:00,
2013-03-16 00:05:00,48.5,34.4,29.77,North,360,0.0,0.0,58,0.00,CLR,,0.00,WeatherDisplay:10.37,2013-03-16 04:05:00,
2013-03-16 00:10:00,48.5,34.4,29.77,North,360,0.0,0.0,58,0.00,CLR,,0.00,WeatherDisplay:10.37,2013-03-16 04:10:00,
2013-03-16 00:15:00,48.4,34.7,29.78,North,360,0.0,0.0,59,0.00,CLR,,0.00,WeatherDisplay:10.37,2013-03-16 04:15:00,
2013-03-16 00:20:00,48.0,35.2,29.78,North,360,0.0,0.0,61,0.00,CLR,,0.00,WeatherDisplay:10.37,2013-03-16 04:20:00,
2013-03-16 00:25:00,47.5,34.7,29.77,North,360,0.0,0.0,61,0.00,CLR,,0.00,WeatherDisplay:10.37,2013-03-16 04:25:00,
2013-03-16 00:30:00,47.6,35.2,29.78,North,360,0.0,0.0,62,0.00,CLR,,0.00,WeatherDisplay:10.37,2013-03-16 04:30:00,
2013-03-16 00:35:00,46.3,34.4,29.77,North,360,0.0,0.0,63,0.00,CLR,,0.00,WeatherDisplay:10.37,2013-03-16 04:35:00,
2013-03-16 00:40:00,46.2,34.3,29.77,North,360,0.0,0.0,63,0.00,CLR,,0.00,WeatherDisplay:10.37,2013-03-16 04:40:00,
2013-03-16 00:45:00,46.9,34.6,29.77,North,360,0.0,0.0,62,0.00,CLR,,0.00,WeatherDisplay:10.37,2013-03-16 04:45:00,
2013-03-16 00:50:00,47.4,35.0,29.77,North,360,0.0,0.0,62,0.00,CLR,,0.00,WeatherDisplay:10.37,2013-03-16 04:50:00,
2013-03-16 00:55:00,47.8,35.4,29.77,North,360,0.0,0.0,62,0.00,CLR,,0.00,WeatherDisplay:10.37,2013-03-16 04:55:00,
2013-03-16 01:00:00,47.8,35.4,29.77,North,360,0.0,0.0,62,0.00,CLR,,0.00,WeatherDisplay:10.37,2013-03-16 05:00:00,
2013-03-16 01:05:00,48.1,35.7,29.76,North,360,0.0,0.0,62,0.00,CLR,,0.00,WeatherDisplay:10.37,2013-03-16 05:05:00,
2013-03-16 01:10:00,48.0,35.6,29.77,North,360,0.0,0.0,62,0.00,CLR,,0.00,WeatherDisplay:10.37,2013-03-16 05:10:00,
2013-03-16 01:15:00,47.3,35.3,29.77,North,360,0.0,0.0,63,0.00,CLR,,0.00,WeatherDisplay:10.37,2013-03-16 05:15:00,
2013-03-16 01:20:00,47.5,35.5,29.77,North,360,0.0,0.0,63,0.00,CLR,,0.00,WeatherDisplay:10.37,2013-03-16 05:20:00,
2013-03-16 01:25:00,47.8,35.4,29.77,North,360,0.0,0.0,62,0.00,CLR,,0.00,WeatherDisplay:10.37,2013-03-16 05:25:00,
2013-03-16 01:30:00,48.3,35.9,29.77,North,360,0.0,0.0,62,0.00,CLR,,0.00,WeatherDisplay:10.37,2013-03-16 05:30:00,
2013-03-16 01:35:00,48.7,36.3,29.77,North,360,0.0,0.0,62,0.00,CLR,,0.00,WeatherDisplay:10.37,2013-03-16 05:35:00,
2013-03-16 01:40:00,48.8,36.4,29.77,North,360,0.0,0.0,62,0.00,CLR,,0.00,WeatherDisplay:10.37,2013-03-16 05:40:00,
2013-03-16 01:45:00,49.2,36.3,29.77,North,360,0.0,0.0,61,0.00,CLR,,0.00,WeatherDisplay:10.37,2013-03-16 05:45:00,
2013-03-16 01:51:00,49.8,36.5,29.77,North,360,0.0,0.0,60,0.00,CLR,,0.00,WeatherDisplay:10.37,2013-03-16 05:51:00,
2013-03-16 01:56:00,50.2,36.8,29.77,North,360,0.0,0.0,60,0.00,CLR,,0.00,WeatherDisplay:10.37,2013-03-16 05:56:00,
2013-03-16 02:01:00,50.4,37.0,29.77,North,360,0.0,0.0,60,0.00,CLR,,0.00,WeatherDisplay:10.37,2013-03-16 06:01:00,
2013-03-16 02:06:00,50.6,37.2,29.77,North,360,0.0,0.0,60,0.00,CLR,,0.00,WeatherDisplay:10.37,2013-03-16 06:06:00,
2013-03-16 02:12:00,51.0,37.2,29.77,North,360,0.0,0.0,59,0.00,CLR,,0.00,WeatherDisplay:10.37,2013-03-16 06:12:00,
2013-03-16 02:17:00,51.0,37.2,29.77,North,360,0.0,0.0,59,0.00,CLR,,0.00,WeatherDisplay:10.37,2013-03-16 06:17:00,
2013-03-16 02:22:00,50.8,37.8,29.77,North,360,0.0,0.0,61,0.00,CLR,,0.00,WeatherDisplay:10.37,2013-03-16 06:22:00,
2013-03-16 02:27:00,50.6,38.1,29.77,North,360,0.0,0.0,62,0.00,CLR,,0.00,WeatherDisplay:10.37,2013-03-16 06:27:00,
2013-03-16 02:32:00,50.7,38.1,29.77,North,360,0.0,0.0,62,0.00,CLR,,0.00,WeatherDisplay:10.37,2013-03-16 06:32:00,
2013-03-16 02:37:00,50.9,38.3,29.76,North,360,0.0,0.0,62,0.00,CLR,,0.00,WeatherDisplay:10.37,2013-03-16 06:37:00,
2013-03-16 02:42:00,50.8,38.2,29.76,North,360,0.0,0.0,62,0.00,CLR,,0.00,WeatherDisplay:10.37,2013-03-16 06:42:00,
2013-03-16 02:47:00,50.7,38.6,29.76,North,360,0.0,0.0,63,0.00,CLR,,0.00,WeatherDisplay:10.37,2013-03-16 06:47:00,
2013-03-16 02:52:00,50.7,39.0,29.76,North,360,0.0,0.0,64,0.00,CLR,,0.00,WeatherDisplay:10.37,2013-03-16 06:52:00,
2013-03-16 02:57:00,50.8,39.1,29.76,North,360,0.0,0.0,64,0.00,CLR,,0.00,WeatherDisplay:10.37,2013-03-16 06:57:00,
2013-03-16 03:02:00,51.0,39.2,29.76,North,360,0.0,0.0,64,0.00,CLR,,0.00,WeatherDisplay:10.37,2013-03-16 07:02:00,
2013-03-16 03:07:00,51.1,39.3,29.76,North,360,0.0,0.0,64,0.00,CLR,,0.00,WeatherDisplay:10.37,2013-03-16 07:07:00,
2013-03-16 03:12:00,51.0,39.2,29.75,North,360,0.0,0.0,64,0.00,CLR,,0.00,WeatherDisplay:10.37,2013-03-16 07:12:00,
2013-03-16 03:18:00,50.8,39.1,29.75,North,360,0.0,0.0,64,0.00,CLR,,0.00,WeatherDisplay:10.37,2013-03-16 07:18:00,
2013-03-16 03:23:00,50.9,39.1,29.75,North,360,0.0,0.0,64,0.00,CLR,,0.00,WeatherDisplay:10.37,2013-03-16 07:23:00,
2013-03-16 03:28:00,50.7,39.0,29.75,North,360,0.0,0.0,64,0.00,CLR,,0.00,WeatherDisplay:10.37,2013-03-16 07:28:00,
2013-03-16 03:33:00,50.8,39.1,29.75,North,360,0.0,0.0,64,0.00,CLR,,0.00,WeatherDisplay:10.37,2013-03-16 07:33:00,
2013-03-16 03:38:00,50.8,39.1,29.75,North,360,0.0,0.0,64,0.00,CLR,,0.00,WeatherDisplay:10.37,2013-03-16 07:38:00,
2013-03-16 03:43:00,50.6,38.9,29.74,North,360,0.0,0.0,64,0.00,CLR,,0.00,WeatherDisplay:10.37,2013-03-16 07:43:00,
2013-03-16 03:48:00,50.5,39.6,29.74,North,360,0.0,0.0,66,0.00,CLR,,0.00,WeatherDisplay:10.37,2013-03-16 07:48:00,
2013-03-16 03:53:00,50.4,39.5,29.74,North,360,0.0,0.0,66,0.00,CLR,,0.00,WeatherDisplay:10.37,2013-03-16 07:53:00,
2013-03-16 03:58:00,50.4,39.5,29.74,North,360,0.0,0.0,66,0.00,CLR,,0.00,WeatherDisplay:10.37,2013-03-16 07:58:00,
2013-03-16 04:03:00,50.4,39.5,29.74,North,360,0.0,0.0,66,0.00,CLR,,0.00,WeatherDisplay:10.37,2013-03-16 08:03:00,
2013-03-16 04:08:00,50.4,39.5,29.74,North,360,0.0,0.0,66,0.00,CLR,,0.00,WeatherDisplay:10.37,2013-03-16 08:08:00,
2013-03-16 04:13:00,50.4,39.5,29.74,North,360,0.0,0.0,66,0.00,CLR,,0.00,WeatherDisplay:10.37,2013-03-16 08:13:00,
2013-03-16 04:18:00,50.4,39.5,29.74,North,360,0.0,0.0,66,0.00,CLR,,0.00,WeatherDisplay:10.37,2013-03-16 08:18:00,
2013-03-16 04:23:00,50.4,39.5,29.74,North,360,0.0,0.0,66,0.00,CLR,,0.00,WeatherDisplay:10.37,2013-03-16 08:23:00,
2013-03-16 04:28:00,50.4,39.5,29.74,North,360,0.0,0.0,66,0.00,CLR,,0.00,WeatherDisplay:10.37,2013-03-16 08:28:00,
2013-03-16 04:33:00,47.4,36.6,29.72,North,360,0.0,0.0,66,0.00,CLR,,0.00,WeatherDisplay:10.37,2013-03-16 08:33:00,
2013-03-16 04:38:00,47.4,36.6,29.72,North,360,0.0,0.0,66,0.00,CLR,,0.00,WeatherDisplay:10.37,2013-03-16 08:38:00,
2013-03-16 04:43:00,46.2,35.5,29.72,North,360,0.0,0.0,66,0.00,CLR,,0.00,WeatherDisplay:10.37,2013-03-16 08:43:00,
2013-03-16 04:48:00,46.2,35.5,29.72,North,360,0.0,0.0,66,0.00,CLR,,0.00,WeatherDisplay:10.37,2013-03-16 08:48:00,
2013-03-16 04:53:00,46.2,35.5,29.72,North,360,0.0,0.0,66,0.00,CLR,,0.00,WeatherDisplay:10.37,2013-03-16 08:53:00,
2013-03-16 04:58:00,46.2,35.5,29.72,North,360,0.0,0.0,66,0.00,CLR,,0.00,WeatherDisplay:10.37,2013-03-16 08:58:00,
2013-03-16 05:03:00,46.2,35.5,29.72,North,360,0.0,0.0,66,0.00,CLR,,0.00,WeatherDisplay:10.37,2013-03-16 09:03:00,
2013-03-16 05:08:00,43.7,33.1,29.72,North,360,0.0,0.0,66,0.00,CLR,,0.00,WeatherDisplay:10.37,2013-03-16 09:08:00,
2013-03-16 05:13:00,43.7,33.1,29.72,North,360,0.0,0.0,66,0.00,CLR,,0.00,WeatherDisplay:10.37,2013-03-16 09:13:00,
2013-03-16 05:18:00,42.3,31.7,29.72,North,360,0.0,0.0,66,0.00,CLR,,0.00,WeatherDisplay:10.37,2013-03-16 09:18:00,
2013-03-16 05:23:00,42.4,23.1,29.73,North,360,0.0,0.0,46,0.00,CLR,,0.00,WeatherDisplay:10.37,2013-03-16 09:23:00,
2013-03-16 05:28:00,42.4,23.1,29.73,North,360,0.0,0.0,46,0.00,CLR,,0.00,WeatherDisplay:10.37,2013-03-16 09:28:00,
2013-03-16 05:33:00,42.4,23.1,29.73,North,360,0.0,0.0,46,0.00,CLR,,0.00,WeatherDisplay:10.37,2013-03-16 09:33:00,
2013-03-16 05:38:00,42.4,23.1,29.73,North,360,0.0,0.0,46,0.00,CLR,,0.00,WeatherDisplay:10.37,2013-03-16 09:38:00,
2013-03-16 05:43:00,42.4,23.1,29.73,North,360,0.0,0.0,46,0.00,CLR,,0.00,WeatherDisplay:10.37,2013-03-16 09:43:00,
2013-03-16 05:48:00,42.4,23.1,29.73,North,360,0.0,0.0,46,0.00,CLR,,0.00,WeatherDisplay:10.37,2013-03-16 09:48:00,
2013-03-16 05:53:00,42.4,23.1,29.73,North,360,0.0,0.0,46,0.00,CLR,,0.00,WeatherDisplay:10.37,2013-03-16 09:53:00,
2013-03-16 05:58:00,42.4,23.1,29.73,North,360,0.0,0.0,46,0.00,CLR,,0.00,WeatherDisplay:10.37,2013-03-16 09:58:00,
2013-03-16 06:03:00,41.9,22.6,29.73,North,360,0.0,0.0,46,0.00,CLR,,0.00,WeatherDisplay:10.37,2013-03-16 10:03:00,
2013-03-16 06:08:00,41.9,22.6,29.73,North,360,0.0,0.0,46,0.00,CLR,,0.00,WeatherDisplay:10.37,2013-03-16 10:08:00,
2013-03-16 06:13:00,41.9,22.6,29.73,North,360,0.0,0.0,46,0.00,CLR,,0.00,WeatherDisplay:10.37,2013-03-16 10:13:00,
2013-03-16 06:18:00,41.9,22.6,29.73,North,360,0.0,0.0,46,0.00,CLR,,0.00,WeatherDisplay:10.37,2013-03-16 10:18:00,
2013-03-16 06:23:00,41.9,22.6,29.73,North,360,0.0,0.0,46,0.00,CLR,,0.00,WeatherDisplay:10.37,2013-03-16 10:23:00,
2013-03-16 06:28:00,41.9,22.6,29.73,North,360,0.0,0.0,46,0.00,CLR,,0.00,WeatherDisplay:10.37,2013-03-16 10:28:00,
2013-03-16 06:33:00,41.9,22.6,29.73,North,360,0.0,0.0,46,0.00,CLR,,0.00,WeatherDisplay:10.37,2013-03-16 10:33:00,
2013-03-16 06:38:00,41.9,22.6,29.73,North,360,0.0,0.0,46,0.00,CLR,,0.00,WeatherDisplay:10.37,2013-03-16 10:38:00,
2013-03-16 06:43:00,41.9,22.6,29.73,North,360,0.0,0.0,46,0.00,CLR,,0.00,WeatherDisplay:10.37,2013-03-16 10:43:00,
2013-03-16 06:48:00,41.8,22.5,29.75,North,0,0.0,0.0,46,0.00,CLR,,0.00,WeatherDisplay:10.37,2013-03-16 10:48:00,
2013-03-16 06:53:00,41.8,22.5,29.75,North,0,0.0,0.1,46,0.00,CLR,,0.00,WeatherDisplay:10.37,2013-03-16 10:53:00,
2013-03-16 06:58:00,41.8,22.5,29.75,North,0,0.0,0.1,46,0.00,CLR,,0.00,WeatherDisplay:10.37,2013-03-16 10:58:00,
2013-03-16 07:03:00,41.8,22.5,29.75,North,0,0.0,0.1,46,0.00,CLR,,0.00,WeatherDisplay:10.37,2013-03-16 11:03:00,
2013-03-16 07:08:00,41.8,22.5,29.75,North,0,0.0,0.1,46,0.00,CLR,,0.00,WeatherDisplay:10.37,2013-03-16 11:08:00,
2013-03-16 07:13:00,42.5,23.2,29.75,SSE,150,0.0,0.0,46,0.00,CLR,,0.00,WeatherDisplay:10.37,2013-03-16 11:13:00,
2013-03-16 07:18:00,42.5,23.2,29.75,SSE,150,0.0,0.0,46,0.00,CLR,,0.00,WeatherDisplay:10.37,2013-03-16 11:18:00,
2013-03-16 07:23:00,42.5,23.2,29.75,SSE,150,0.0,0.0,46,0.00,CLR,,0.00,WeatherDisplay:10.37,2013-03-16 11:23:00,
2013-03-16 07:28:00,42.5,23.2,29.75,SSE,150,0.0,0.0,46,0.00,CLR,,0.00,WeatherDisplay:10.37,2013-03-16 11:28:00,
2013-03-16 07:33:00,42.5,23.2,29.75,SSE,150,0.0,0.0,46,0.00,CLR,,0.00,WeatherDisplay:10.37,2013-03-16 11:33:00,
2013-03-16 07:38:00,42.5,23.2,29.75,SSE,150,0.0,0.0,46,0.00,CLR,,0.00,WeatherDisplay:10.37,2013-03-16 11:38:00,
2013-03-16 07:43:00,43.6,24.2,29.74,South,179,0.0,0.2,46,0.00,CLR,,0.00,WeatherDisplay:10.37,2013-03-16 11:43:00,
2013-03-16 07:48:00,43.6,24.2,29.74,South,179,0.0,0.2,46,0.00,CLR,,0.00,WeatherDisplay:10.37,2013-03-16 11:48:00,
2013-03-16 07:53:00,43.4,24.0,29.73,South,179,0.0,0.2,46,0.00,CLR,,0.00,WeatherDisplay:10.37,2013-03-16 11:53:00,
2013-03-16 07:58:00,43.4,24.0,29.73,South,179,0.0,0.2,46,0.00,CLR,,0.00,WeatherDisplay:10.37,2013-03-16 11:58:00,
2013-03-16 08:03:00,43.4,24.0,29.73,South,179,0.0,0.2,46,0.00,CLR,,0.00,WeatherDisplay:10.37,2013-03-16 12:03:00,
2013-03-16 08:09:00,43.4,24.0,29.73,South,179,0.0,0.2,46,0.00,CLR,,0.00,WeatherDisplay:10.37,2013-03-16 12:09:00,
2013-03-16 08:14:00,42.2,22.9,29.77,North,7,0.0,0.2,46,0.00,CLR,,0.00,WeatherDisplay:10.37,2013-03-16 12:14:00,
2013-03-16 08:19:00,42.2,22.9,29.77,North,7,0.0,0.2,46,0.00,CLR,,0.00,WeatherDisplay:10.37,2013-03-16 12:19:00,
2013-03-16 08:24:00,42.2,22.9,29.77,North,7,0.0,0.2,46,0.00,CLR,,0.00,WeatherDisplay:10.37,2013-03-16 12:24:00,
2013-03-16 08:29:00,42.2,22.9,29.77,North,7,0.0,0.2,46,0.00,CLR,,0.00,WeatherDisplay:10.37,2013-03-16 12:29:00,
2013-03-16 08:34:00,42.2,22.9,29.77,North,7,0.0,0.2,46,0.00,CLR,,0.00,WeatherDisplay:10.37,2013-03-16 12:34:00,
2013-03-16 08:39:00,42.2,22.9,29.77,North,7,0.0,0.2,46,0.00,CLR,,0.00,WeatherDisplay:10.37,2013-03-16 12:39:00,
2013-03-16 08:44:00,42.2,22.9,29.77,North,7,0.0,0.2,46,0.00,CLR,,0.00,WeatherDisplay:10.37,2013-03-16 12:44:00,
2013-03-16 08:49:00,42.2,22.9,29.77,North,7,0.0,0.2,46,0.00,CLR,,0.00,WeatherDisplay:10.37,2013-03-16 12:49:00,
2013-03-16 08:54:00,42.2,22.9,29.77,North,7,0.0,0.2,46,0.00,CLR,,0.00,WeatherDisplay:10.37,2013-03-16 12:54:00,
2013-03-16 08:59:00,42.2,22.9,29.77,North,7,0.0,0.2,46,0.00,CLR,,0.00,WeatherDisplay:10.37,2013-03-16 12:59:00,
2013-03-16 09:04:00,42.2,22.9,29.77,North,7,0.0,0.2,46,0.00,CLR,,0.00,WeatherDisplay:10.37,2013-03-16 13:04:00,
2013-03-16 09:09:00,42.2,22.9,29.77,North,7,0.0,0.2,46,0.00,CLR,,0.00,WeatherDisplay:10.37,2013-03-16 13:09:00,
2013-03-16 09:14:00,42.2,22.9,29.77,North,7,0.0,0.2,46,0.00,CLR,,0.00,WeatherDisplay:10.37,2013-03-16 13:14:00,
2013-03-16 09:19:00,42.2,22.9,29.77,North,7,0.0,0.2,46,0.00,CLR,,0.00,WeatherDisplay:10.37,2013-03-16 13:19:00,
2013-03-16 09:24:00,42.2,22.9,29.77,North,7,0.0,0.2,46,0.00,CLR,,0.00,WeatherDisplay:10.37,2013-03-16 13:24:00,
2013-03-16 09:29:00,44.0,24.5,29.72,West,267,0.0,0.3,46,0.00,CLR,,0.05,WeatherDisplay:10.37,2013-03-16 13:29:00,
2013-03-16 09:34:00,44.0,24.5,29.72,West,267,2.3,2.3,46,0.05,RA,,0.05,WeatherDisplay:10.37,2013-03-16 13:34:00,
2013-03-16 09:39:00,44.0,24.5,29.72,West,267,2.3,2.3,46,0.05,RA,,0.05,WeatherDisplay:10.37,2013-03-16 13:39:00,
2013-03-16 09:44:00,44.0,24.5,29.72,West,267,2.3,2.3,46,0.05,CLR,,0.05,WeatherDisplay:10.37,2013-03-16 13:44:00,
2013-03-16 09:49:00,44.0,24.5,29.72,West,267,2.3,2.3,46,0.05,CLR,,0.05,WeatherDisplay:10.37,2013-03-16 13:49:00,
2013-03-16 09:54:00,45.0,25.4,29.71,SW,224,0.0,1.9,46,0.05,CLR,,0.05,WeatherDisplay:10.37,2013-03-16 13:54:00,
2013-03-16 09:59:00,45.0,25.4,29.71,SW,224,0.0,1.9,46,0.05,CLR,,0.05,WeatherDisplay:10.37,2013-03-16 13:59:00,
2013-03-16 10:04:00,45.3,25.7,29.70,North,0,0.0,0.3,46,0.05,CLR,,0.05,WeatherDisplay:10.37,2013-03-16 14:04:00,
2013-03-16 10:09:00,45.5,25.9,29.70,NNE,27,0.0,0.3,46,0.05,CLR,,0.05,WeatherDisplay:10.37,2013-03-16 14:09:00,
2013-03-16 10:14:00,45.5,25.9,29.70,NNE,27,0.0,0.3,46,0.05,CLR,,0.05,WeatherDisplay:10.37,2013-03-16 14:14:00,
2013-03-16 10:19:00,45.5,25.9,29.70,NNE,27,0.0,0.3,46,0.05,CLR,,0.05,WeatherDisplay:10.37,2013-03-16 14:19:00,
2013-03-16 10:24:00,46.2,26.5,29.70,NE,42,0.0,0.3,46,0.05,CLR,,0.05,WeatherDisplay:10.37,2013-03-16 14:24:00,
2013-03-16 10:29:00,46.2,26.5,29.70,NE,42,0.0,0.3,46,0.05,CLR,,0.05,WeatherDisplay:10.37,2013-03-16 14:29:00,
2013-03-16 10:34:00,46.4,26.7,29.70,ENE,68,0.0,0.3,46,0.00,CLR,,0.05,WeatherDisplay:10.37,2013-03-16 14:34:00,
2013-03-16 10:39:00,46.5,26.8,29.67,West,280,2.3,2.3,46,0.00,CLR,,0.05,WeatherDisplay:10.37,2013-03-16 14:39:00,
2013-03-16 10:44:00,46.6,26.9,29.69,ENE,64,0.0,0.3,46,0.00,CLR,,0.05,WeatherDisplay:10.37,2013-03-16 14:44:00,
2013-03-16 10:49:00,46.9,27.2,29.69,ENE,62,0.0,0.3,46,0.00,CLR,,0.05,WeatherDisplay:10.37,2013-03-16 14:49:00,
2013-03-16 10:54:00,47.0,27.3,29.68,ENE,75,0.0,0.3,46,0.00,CLR,,0.05,WeatherDisplay:10.37,2013-03-16 14:54:00,
2013-03-16 10:59:00,47.0,27.3,29.68,ESE,110,0.0,0.3,46,0.00,CLR,,0.05,WeatherDisplay:10.37,2013-03-16 14:59:00,
2013-03-16 11:04:00,47.0,27.3,29.68,ESE,110,0.0,0.3,46,0.00,CLR,,0.05,WeatherDisplay:10.37,2013-03-16 15:04:00,
2013-03-16 11:09:00,47.3,27.5,29.67,NNE,31,0.0,0.3,46,0.00,CLR,,0.05,WeatherDisplay:10.37,2013-03-16 15:09:00,
2013-03-16 11:15:00,47.3,27.5,29.67,NNE,31,0.0,0.3,46,0.00,CLR,,0.05,WeatherDisplay:10.37,2013-03-16 15:15:00,
2013-03-16 11:20:00,48.2,28.4,29.67,NE,40,0.0,0.0,46,0.00,CLR,,0.05,WeatherDisplay:10.37,2013-03-16 15:20:00,
2013-03-16 11:25:00,48.6,28.7,29.67,ENE,65,0.0,0.3,46,0.00,CLR,,0.05,WeatherDisplay:10.37,2013-03-16 15:25:00,
2013-03-16 11:30:00,48.8,28.9,29.66,NE,55,0.0,0.3,46,0.00,CLR,,0.05,WeatherDisplay:10.37,2013-03-16 15:30:00,
2013-03-16 11:35:00,48.8,28.9,29.66,NE,55,0.0,0.3,46,0.00,CLR,,0.05,WeatherDisplay:10.37,2013-03-16 15:35:00,
2013-03-16 11:40:00,49.8,29.8,29.65,NE,53,0.0,0.0,46,0.00,CLR,,0.05,WeatherDisplay:10.37,2013-03-16 15:40:00,
2013-03-16 11:45:00,49.8,29.8,29.65,NE,51,0.0,0.3,46,0.00,CLR,,0.05,WeatherDisplay:10.37,2013-03-16 15:45:00,
2013-03-16 11:50:00,49.8,29.8,29.65,NE,51,0.0,0.3,46,0.00,CLR,,0.05,WeatherDisplay:10.37,2013-03-16 15:50:00,
2013-03-16 11:55:00,49.8,29.8,29.65,NE,51,0.0,0.3,46,0.00,CLR,,0.05,WeatherDisplay:10.37,2013-03-16 15:55:00,
2013-03-16 12:00:00,50.4,30.4,29.67,WNW,299,1.1,1.1,46,0.00,CLR,,0.05,WeatherDisplay:10.37,2013-03-16 16:00:00,
2013-03-16 12:05:00,50.2,30.2,29.67,SE,127,0.0,0.6,46,0.00,CLR,,0.05,WeatherDisplay:10.37,2013-03-16 16:05:00,
2013-03-16 12:10:00,49.9,29.9,29.68,ESE,117,0.0,0.3,46,0.00,CLR,,0.05,WeatherDisplay:10.37,2013-03-16 16:10:00,
2013-03-16 12:15:00,49.9,29.9,29.68,ESE,117,0.0,0.3,46,0.00,CLR,,0.05,WeatherDisplay:10.37,2013-03-16 16:15:00,
2013-03-16 12:20:00,49.0,29.1,29.67,East,83,0.0,0.3,46,0.00,CLR,,0.05,WeatherDisplay:10.37,2013-03-16 16:20:00,
2013-03-16 12:25:00,49.0,29.1,29.67,East,83,0.0,0.3,46,0.00,CLR,,0.05,WeatherDisplay:10.37,2013-03-16 16:25:00,
2013-03-16 12:30:00,47.9,28.6,29.60,SE,128,1.1,1.1,47,0.00,CLR,,0.05,WeatherDisplay:10.37,2013-03-16 16:30:00,
2013-03-16 12:35:00,47.8,28.5,29.62,ESE,119,1.1,1.1,47,0.00,CLR,,0.05,WeatherDisplay:10.37,2013-03-16 16:35:00,
2013-03-16 12:40:00,48.1,28.8,29.63,SSW,196,6.9,6.9,47,0.00,CLR,,0.05,WeatherDisplay:10.37,2013-03-16 16:40:00,
2013-03-16 12:45:00,48.4,29.1,29.64,WSW,244,1.1,6.8,47,0.00,CLR,,0.05,WeatherDisplay:10.37,2013-03-16 16:45:00,
2013-03-16 12:50:00,49.2,29.8,29.63,WNW,295,1.1,1.1,47,0.00,CLR,,0.05,WeatherDisplay:10.37,2013-03-16 16:50:00,
2013-03-16 12:55:00,49.2,29.8,29.63,WNW,295,1.1,1.1,47,0.00,CLR,,0.05,WeatherDisplay:10.37,2013-03-16 16:55:00,
2013-03-16 13:00:00,49.2,29.8,29.63,WNW,295,1.1,1.1,47,0.00,CLR,,0.05,WeatherDisplay:10.37,2013-03-16 17:00:00,
2013-03-16 13:05:00,49.2,29.8,29.63,WNW,295,1.1,1.1,47,0.00,CLR,,0.05,WeatherDisplay:10.37,2013-03-16 17:05:00,
2013-03-16 13:10:00,49.2,29.8,29.63,WNW,295,1.1,1.1,47,0.00,CLR,,0.05,WeatherDisplay:10.37,2013-03-16 17:10:00,
2013-03-16 13:15:00,49.2,29.8,29.63,WNW,295,1.1,1.1,47,0.00,CLR,,0.05,WeatherDisplay:10.37,2013-03-16 17:15:00,
2013-03-16 13:20:00,49.2,29.8,29.63,WNW,295,1.1,1.1,47,0.00,CLR,,0.05,WeatherDisplay:10.37,2013-03-16 17:20:00,
2013-03-16 13:25:00,49.2,29.8,29.63,WNW,295,1.1,1.1,47,0.00,CLR,,0.05,WeatherDisplay:10.37,2013-03-16 17:25:00,
2013-03-16 13:30:00,53.6,33.8,29.60,West,280,1.1,1.1,47,0.00,CLR,,0.05,WeatherDisplay:10.37,2013-03-16 17:30:00,
2013-03-16 13:35:00,53.6,33.8,29.60,West,280,3.5,3.5,47,0.00,CLR,,0.05,WeatherDisplay:10.37,2013-03-16 17:35:00,
2013-03-16 13:40:00,53.6,33.8,29.60,West,280,3.5,3.5,47,0.00,CLR,,0.05,WeatherDisplay:10.37,2013-03-16 17:40:00,
2013-03-16 13:45:00,53.6,33.8,29.60,West,280,3.5,3.5,47,0.00,CLR,,0.05,WeatherDisplay:10.37,2013-03-16 17:45:00,
2013-03-16 13:50:00,53.6,33.8,29.60,West,280,3.5,3.5,47,0.00,CLR,,0.05,WeatherDisplay:10.37,2013-03-16 17:50:00,
2013-03-16 13:55:00,53.6,33.8,29.60,West,280,3.5,3.5,47,0.00,CLR,,0.05,WeatherDisplay:10.37,2013-03-16 17:55:00,
2013-03-16 14:00:00,53.6,33.8,29.60,West,280,3.5,3.5,47,0.00,CLR,,0.05,WeatherDisplay:10.37,2013-03-16 18:00:00,
2013-03-16 14:05:00,53.6,33.8,29.60,West,280,3.5,3.5,47,0.00,CLR,,0.05,WeatherDisplay:10.37,2013-03-16 18:05:00,
2013-03-16 14:10:00,53.6,33.8,29.60,West,280,3.5,3.5,47,0.00,CLR,,0.05,WeatherDisplay:10.37,2013-03-16 18:10:00,
2013-03-16 14:15:00,53.6,33.8,29.60,West,280,3.5,3.5,47,0.00,CLR,,0.05,WeatherDisplay:10.37,2013-03-16 18:15:00,
2013-03-16 14:20:00,53.6,33.8,29.60,West,280,3.5,3.5,47,0.00,CLR,,0.05,WeatherDisplay:10.37,2013-03-16 18:20:00,
2013-03-16 14:25:00,53.6,33.8,29.60,West,280,3.5,3.5,47,0.00,CLR,,0.05,WeatherDisplay:10.37,2013-03-16 18:25:00,
2013-03-16 14:30:00,53.6,33.8,29.60,West,280,3.5,3.5,47,0.00,CLR,,0.05,WeatherDisplay:10.37,2013-03-16 18:30:00,
2013-03-16 14:35:00,53.6,33.8,29.60,West,280,3.5,3.5,47,0.00,CLR,,0.05,WeatherDisplay:10.37,2013-03-16 18:35:00,
2013-03-16 14:40:00,58.5,38.3,29.57,WSW,237,1.1,2.9,47,0.00,CLR,,0.05,WeatherDisplay:10.37,2013-03-16 18:40:00,
2013-03-16 14:45:00,58.5,38.3,29.57,WSW,237,1.1,2.9,47,0.00,CLR,,0.05,WeatherDisplay:10.37,2013-03-16 18:45:00,
2013-03-16 14:51:00,58.1,38.0,29.57,SW,219,1.1,1.1,47,0.00,CLR,,0.05,WeatherDisplay:10.37,2013-03-16 18:51:00,
2013-03-16 14:56:00,58.1,38.0,29.57,SW,219,1.1,1.1,47,0.00,CLR,,0.05,WeatherDisplay:10.37,2013-03-16 18:56:00,
2013-03-16 15:01:00,58.1,38.0,29.57,SW,219,1.1,1.1,47,0.00,CLR,,0.05,WeatherDisplay:10.37,2013-03-16 19:01:00,
2013-03-16 15:06:00,58.1,38.0,29.57,SW,219,1.1,1.1,47,0.00,CLR,,0.05,WeatherDisplay:10.37,2013-03-16 19:06:00,
2013-03-16 15:11:00,58.1,38.0,29.57,SW,219,1.1,1.1,47,0.00,CLR,,0.05,WeatherDisplay:10.37,2013-03-16 19:11:00,
2013-03-16 15:16:00,58.1,38.0,29.57,SW,219,1.1,1.1,47,0.00,CLR,,0.05,WeatherDisplay:10.37,2013-03-16 19:16:00,
2013-03-16 15:21:00,58.1,38.0,29.57,SW,219,1.1,1.1,47,0.00,CLR,,0.05,WeatherDisplay:10.37,2013-03-16 19:21:00,
2013-03-16 15:26:00,58.1,38.0,29.57,SW,219,1.1,1.1,47,0.00,CLR,,0.05,WeatherDisplay:10.37,2013-03-16 19:26:00,
2013-03-16 15:31:00,58.1,38.0,29.57,SW,219,1.1,1.1,47,0.00,CLR,,0.05,WeatherDisplay:10.37,2013-03-16 19:31:00,
2013-03-16 15:36:00,58.1,38.0,29.57,SW,219,1.1,1.1,47,0.00,CLR,,0.05,WeatherDisplay:10.37,2013-03-16 19:36:00,
2013-03-16 15:41:00,58.1,38.0,29.57,SW,219,1.1,1.1,47,0.00,CLR,,0.05,WeatherDisplay:10.37,2013-03-16 19:41:00,
2013-03-16 15:46:00,58.1,38.0,29.57,SW,219,1.1,1.1,47,0.00,CLR,,0.05,WeatherDisplay:10.37,2013-03-16 19:46:00,
2013-03-16 15:51:00,58.1,38.0,29.57,SW,219,1.1,1.1,47,0.00,CLR,,0.05,WeatherDisplay:10.37,2013-03-16 19:51:00,
2013-03-16 15:56:00,58.1,38.0,29.57,SW,219,1.1,1.1,47,0.00,CLR,,0.05,WeatherDisplay:10.37,2013-03-16 19:56:00,
2013-03-16 16:01:00,58.1,38.0,29.57,SW,219,1.1,1.1,47,0.00,CLR,,0.05,WeatherDisplay:10.37,2013-03-16 20:01:00,
2013-03-16 16:07:00,58.1,38.0,29.57,SW,219,1.1,1.1,47,0.00,CLR,,0.05,WeatherDisplay:10.37,2013-03-16 20:07:00,
2013-03-16 16:12:00,58.1,38.0,29.57,SW,219,1.1,1.1,47,0.00,CLR,,0.05,WeatherDisplay:10.37,2013-03-16 20:12:00,
2013-03-16 16:17:00,58.1,38.0,29.57,SW,219,1.1,1.1,47,0.00,CLR,,0.05,WeatherDisplay:10.37,2013-03-16 20:17:00,
2013-03-16 16:22:00,58.1,38.0,29.57,SW,219,1.1,1.1,47,0.00,CLR,,0.05,WeatherDisplay:10.37,2013-03-16 20:22:00,
2013-03-16 16:27:00,58.1,38.0,29.57,SW,219,1.1,1.1,47,0.00,CLR,,0.05,WeatherDisplay:10.37,2013-03-16 20:27:00,
2013-03-16 16:32:00,58.1,38.0,29.57,SW,219,1.1,1.1,47,0.00,CLR,,0.05,WeatherDisplay:10.37,2013-03-16 20:32:00,
2013-03-16 16:37:00,60.4,40.1,29.58,WSW,237,1.1,1.1,47,0.00,CLR,,0.05,WeatherDisplay:10.37,2013-03-16 20:37:00,
2013-03-16 16:42:00,60.4,40.1,29.58,WSW,237,1.1,1.1,47,0.00,CLR,,0.05,WeatherDisplay:10.37,2013-03-16 20:42:00,
2013-03-16 16:47:00,61.2,40.8,29.58,East,83,1.1,1.1,47,0.00,CLR,,0.05,WeatherDisplay:10.37,2013-03-16 20:47:00,
2013-03-16 16:52:00,61.2,40.8,29.58,East,83,1.1,1.1,47,0.00,CLR,,0.05,WeatherDisplay:10.37,2013-03-16 20:52:00,
2013-03-16 16:57:00,61.2,40.8,29.58,East,83,1.1,1.1,47,0.00,CLR,,0.05,WeatherDisplay:10.37,2013-03-16 20:57:00,
2013-03-16 17:02:00,61.1,40.7,29.58,SW,233,1.1,1.1,47,0.00,CLR,,0.05,WeatherDisplay:10.37,2013-03-16 21:02:00,
2013-03-16 17:07:00,61.1,40.7,29.58,SW,233,0.0,0.9,47,0.00,CLR,,0.05,WeatherDisplay:10.37,2013-03-16 21:07:00,
2013-03-16 17:12:00,60.8,40.4,29.58,SW,236,1.1,1.1,47,0.00,CLR,,0.05,WeatherDisplay:10.37,2013-03-16 21:12:00,
2013-03-16 17:17:00,60.8,40.4,29.58,SW,236,1.1,1.1,47,0.00,CLR,,0.05,WeatherDisplay:10.37,2013-03-16 21:17:00,
2013-03-16 17:23:00,60.8,40.4,29.58,SW,236,1.1,1.1,47,0.00,CLR,,0.05,WeatherDisplay:10.37,2013-03-16 21:23:00,
2013-03-16 17:28:00,60.8,40.4,29.58,SW,236,1.1,1.1,47,0.00,CLR,,0.05,WeatherDisplay:10.37,2013-03-16 21:28:00,
2013-03-16 17:33:00,60.8,40.4,29.58,SW,236,1.1,1.1,47,0.00,CLR,,0.05,WeatherDisplay:10.37,2013-03-16 21:33:00,
2013-03-16 17:38:00,60.8,40.4,29.58,SW,236,1.1,1.1,47,0.00,CLR,,0.05,WeatherDisplay:10.37,2013-03-16 21:38:00,
2013-03-16 17:43:00,60.4,40.1,29.59,SW,236,1.1,1.1,47,0.00,CLR,,0.05,WeatherDisplay:10.37,2013-03-16 21:43:00,
2013-03-16 17:48:00,60.4,40.1,29.59,SW,236,0.0,0.9,47,0.00,CLR,,0.05,WeatherDisplay:10.37,2013-03-16 21:48:00,
2013-03-16 17:53:00,60.4,40.1,29.59,SW,236,0.0,0.9,47,0.00,CLR,,0.05,WeatherDisplay:10.37,2013-03-16 21:53:00,
2013-03-16 17:58:00,60.4,40.1,29.59,SW,236,0.0,0.9,47,0.00,CLR,,0.05,WeatherDisplay:10.37,2013-03-16 21:58:00,
2013-03-16 18:03:00,60.4,40.1,29.59,SW,236,0.0,0.9,47,0.00,CLR,,0.05,WeatherDisplay:10.37,2013-03-16 22:03:00,
2013-03-16 18:08:00,60.4,40.1,29.59,SW,236,0.0,0.9,47,0.00,CLR,,0.05,WeatherDisplay:10.37,2013-03-16 22:08:00,
2013-03-16 18:13:00,62.0,41.5,29.61,SW,236,0.0,0.0,47,0.00,CLR,,0.05,WeatherDisplay:10.37,2013-03-16 22:13:00,
2013-03-16 18:18:00,62.0,41.5,29.61,SW,236,0.0,0.0,47,0.00,CLR,,0.05,WeatherDisplay:10.37,2013-03-16 22:18:00,
2013-03-16 18:23:00,62.0,41.5,29.61,SW,236,0.0,0.0,47,0.00,CLR,,0.05,WeatherDisplay:10.37,2013-03-16 22:23:00,
2013-03-16 18:28:00,61.6,41.2,29.61,SW,236,0.0,0.0,47,0.00,CLR,,0.05,WeatherDisplay:10.37,2013-03-16 22:28:00,
2013-03-16 18:33:00,61.6,41.2,29.61,SW,236,0.0,0.0,47,0.00,CLR,,0.05,WeatherDisplay:10.37,2013-03-16 22:33:00,
2013-03-16 18:38:00,61.1,40.7,29.62,SW,236,0.0,0.0,47,0.00,CLR,,0.05,WeatherDisplay:10.37,2013-03-16 22:38:00,
2013-03-16 18:43:00,61.1,40.7,29.62,SW,236,0.0,0.0,47,0.00,CLR,,0.05,WeatherDisplay:10.37,2013-03-16 22:43:00,
2013-03-16 18:48:00,61.1,40.7,29.62,SW,236,0.0,0.0,47,0.00,CLR,,0.05,WeatherDisplay:10.37,2013-03-16 22:48:00,
2013-03-16 18:53:00,60.7,40.3,29.63,SW,236,0.0,0.0,47,0.00,CLR,,0.05,WeatherDisplay:10.37,2013-03-16 22:53:00,
2013-03-16 18:58:00,60.2,39.9,29.63,SW,236,0.0,0.0,47,0.00,CLR,,0.05,WeatherDisplay:10.37,2013-03-16 22:58:00,
2013-03-16 19:03:00,60.2,39.9,29.63,SW,236,0.0,0.0,47,0.00,CLR,,0.05,WeatherDisplay:10.37,2013-03-16 23:03:00,
2013-03-16 19:08:00,60.2,39.9,29.63,SW,236,0.0,0.0,47,0.00,CLR,,0.05,WeatherDisplay:10.37,2013-03-16 23:08:00,
2013-03-16 19:13:00,60.2,39.9,29.63,SW,236,0.0,0.0,47,0.00,CLR,,0.05,WeatherDisplay:10.37,2013-03-16 23:13:00,
2013-03-16 19:18:00,60.2,39.9,29.63,SW,236,0.0,0.0,47,0.00,CLR,,0.05,WeatherDisplay:10.37,2013-03-16 23:18:00,
2013-03-16 19:23:00,60.2,39.9,29.63,SW,236,0.0,0.0,47,0.00,CLR,,0.05,WeatherDisplay:10.37,2013-03-16 23:23:00,
2013-03-16 19:28:00,60.2,39.9,29.63,SW,236,0.0,0.0,47,0.00,CLR,,0.05,WeatherDisplay:10.37,2013-03-16 23:28:00,
2013-03-16 19:33:00,60.2,39.9,29.63,SW,236,0.0,0.0,47,0.00,CLR,,0.05,WeatherDisplay:10.37,2013-03-16 23:33:00,
2013-03-16 19:38:00,53.7,33.9,29.66,SW,236,0.0,0.0,47,0.00,CLR,,0.05,WeatherDisplay:10.37,2013-03-16 23:38:00,
2013-03-16 19:43:00,53.7,33.9,29.66,SW,236,0.0,0.0,47,0.00,CLR,,0.05,WeatherDisplay:10.37,2013-03-16 23:43:00,
2013-03-16 19:48:00,53.7,33.9,29.66,SW,236,0.0,0.0,47,0.00,CLR,,0.05,WeatherDisplay:10.37,2013-03-16 23:48:00,
2013-03-16 19:53:00,50.8,31.3,29.68,NE,34,3.5,0.0,47,0.00,CLR,,0.05,WeatherDisplay:10.37,2013-03-16 23:53:00,
2013-03-16 19:58:00,49.7,30.3,29.69,NE,34,0.0,3.0,47,0.00,CLR,,0.05,WeatherDisplay:10.37,2013-03-16 23:58:00,
2013-03-16 20:03:00,49.7,30.3,29.69,NE,34,0.0,3.0,47,0.00,CLR,,0.05,WeatherDisplay:10.37,2013-03-17 00:03:00,
2013-03-16 20:08:00,49.7,30.3,29.69,NE,34,0.0,3.0,47,0.00,CLR,,0.05,WeatherDisplay:10.37,2013-03-17 00:08:00,
2013-03-16 20:13:00,46.1,27.0,29.71,NE,34,0.0,0.0,47,0.00,CLR,,0.05,WeatherDisplay:10.37,2013-03-17 00:13:00,
2013-03-16 20:18:00,45.1,40.6,29.71,ENE,72,4.8,0.0,84,0.00,CLR,,0.05,WeatherDisplay:10.37,2013-03-17 00:18:00,
2013-03-16 20:23:00,44.3,40.1,29.72,East,100,5.8,5.8,85,0.00,RA,,0.05,WeatherDisplay:10.37,2013-03-17 00:23:00,
2013-03-16 20:28:00,43.6,40.0,29.73,NNE,16,5.8,5.8,87,0.00,RA,,0.05,WeatherDisplay:10.37,2013-03-17 00:28:00,
2013-03-16 20:33:00,42.9,39.6,29.73,NE,38,2.3,2.3,88,0.00,CLR,,0.05,WeatherDisplay:10.37,2013-03-17 00:33:00,
2013-03-16 20:38:00,42.5,39.5,29.73,ESE,109,4.6,4.6,89,0.00,CLR,,0.05,WeatherDisplay:10.37,2013-03-17 00:38:00,
2013-03-16 20:43:00,42.3,39.6,29.73,East,95,9.2,9.2,90,0.00,CLR,,0.05,WeatherDisplay:10.37,2013-03-17 00:43:00,
2013-03-16 20:48:00,42.2,39.5,29.73,ESE,113,8.1,8.1,90,0.00,CLR,,0.05,WeatherDisplay:10.37,2013-03-17 00:48:00,
2013-03-16 20:53:00,42.0,39.3,29.74,ENE,64,10.4,10.4,90,0.00,CLR,,0.05,WeatherDisplay:10.37,2013-03-17 00:53:00,
2013-03-16 20:58:00,41.9,39.2,29.75,NE,52,6.9,6.9,90,0.00,CLR,,0.05,WeatherDisplay:10.37,2013-03-17 00:58:00,
2013-03-16 21:03:00,41.8,39.1,29.75,North,360,4.6,4.6,90,0.00,CLR,,0.05,WeatherDisplay:10.37,2013-03-17 01:03:00,
2013-03-16 21:08:00,41.8,39.4,29.76,NE,56,5.8,5.8,91,0.00,CLR,,0.05,WeatherDisplay:10.37,2013-03-17 01:08:00,
2013-03-16 21:13:00,41.6,39.2,29.76,ENE,66,4.6,4.6,91,0.00,CLR,,0.05,WeatherDisplay:10.37,2013-03-17 01:13:00,
2013-03-16 21:18:00,41.5,39.1,29.77,ENE,61,6.5,6.5,91,0.00,CLR,,0.05,WeatherDisplay:10.37,2013-03-17 01:18:00,
2013-03-16 21:23:00,41.4,39.0,29.77,North,360,4.6,4.6,91,0.00,CLR,,0.05,WeatherDisplay:10.37,2013-03-17 01:23:00,
2013-03-16 21:29:00,41.4,39.3,29.77,NE,38,2.4,3.3,92,0.00,CLR,,0.05,WeatherDisplay:10.37,2013-03-17 01:29:00,
2013-03-16 21:34:00,41.2,38.8,29.77,NNE,21,3.5,3.5,91,0.00,CLR,,0.05,WeatherDisplay:10.37,2013-03-17 01:34:00,
2013-03-16 21:39:00,41.1,38.7,29.78,NNE,25,0.0,0.0,91,0.00,CLR,,0.05,WeatherDisplay:10.37,2013-03-17 01:39:00,
2013-03-16 21:44:00,41.0,38.6,29.79,NE,40,4.6,4.6,91,0.00,CLR,,0.05,WeatherDisplay:10.37,2013-03-17 01:44:00,
2013-03-16 21:48:00,40.8,38.7,29.79,NE,42,4.6,4.6,92,0.00,CLR,,0.05,WeatherDisplay:10.37,2013-03-17 01:48:00,
2013-03-16 21:54:00,40.7,38.6,29.79,NE,45,0.0,0.5,92,0.00,CLR,,0.05,WeatherDisplay:10.37,2013-03-17 01:54:00,
2013-03-16 21:59:00,40.4,38.3,29.79,NNE,17,4.6,4.6,92,0.00,CLR,,0.05,WeatherDisplay:10.37,2013-03-17 01:59:00,
2013-03-16 22:04:00,40.2,38.3,29.80,ENE,64,5.8,5.8,93,0.00,CLR,,0.05,WeatherDisplay:10.37,2013-03-17 02:04:00,
2013-03-16 22:09:00,39.8,38.2,29.80,NNE,21,4.6,4.6,94,0.00,CLR,,0.05,WeatherDisplay:10.37,2013-03-17 02:09:00,
2013-03-16 22:14:00,39.7,38.1,29.80,NE,44,3.5,3.5,94,0.00,CLR,,0.05,WeatherDisplay:10.37,2013-03-17 02:14:00,
2013-03-16 22:19:00,39.4,37.8,29.81,ENE,59,5.8,5.8,94,0.00,CLR,,0.05,WeatherDisplay:10.37,2013-03-17 02:19:00,
2013-03-16 22:24:00,39.4,37.8,29.81,NNE,24,0.0,0.0,94,0.00,CLR,,0.05,WeatherDisplay:10.37,2013-03-17 02:24:00,
2013-03-16 22:29:00,39.3,37.7,29.81,NNE,24,0.0,0.0,94,0.00,CLR,,0.05,WeatherDisplay:10.37,2013-03-17 02:29:00,
2013-03-16 22:34:00,39.1,37.5,29.81,NNE,24,0.0,0.0,94,0.00,CLR,,0.05,WeatherDisplay:10.37,2013-03-17 02:34:00,
2013-03-16 22:39:00,39.0,37.7,29.81,NE,47,0.0,0.0,95,0.00,CLR,,0.05,WeatherDisplay:10.37,2013-03-17 02:39:00,
2013-03-16 22:44:00,38.9,37.6,29.81,NE,47,0.0,0.0,95,0.00,CLR,,0.05,WeatherDisplay:10.37,2013-03-17 02:44:00,
2013-03-16 22:49:00,38.8,37.5,29.82,NE,47,0.0,0.0,95,0.00,CLR,,0.05,WeatherDisplay:10.37,2013-03-17 02:49:00,
2013-03-16 22:54:00,38.6,37.3,29.82,NE,47,0.0,0.0,95,0.00,CLR,,0.05,WeatherDisplay:10.37,2013-03-17 02:54:00,
2013-03-16 22:59:00,38.5,37.2,29.82,NE,47,0.0,0.0,95,0.00,CLR,,0.05,WeatherDisplay:10.37,2013-03-17 02:59:00,
2013-03-16 23:04:00,38.3,37.0,29.81,NE,47,0.0,0.0,95,0.00,CLR,,0.05,WeatherDisplay:10.37,2013-03-17 03:04:00,
2013-03-16 23:09:00,38.1,36.8,29.81,NE,47,0.0,0.0,95,0.00,CLR,,0.05,WeatherDisplay:10.37,2013-03-17 03:09:00,
2013-03-16 23:14:00,37.9,36.6,29.82,NE,47,0.0,0.0,95,0.00,CLR,,0.05,WeatherDisplay:10.37,2013-03-17 03:14:00,
2013-03-16 23:19:00,37.7,36.4,29.82,NE,47,0.0,0.0,95,0.00,CLR,,0.05,WeatherDisplay:10.37,2013-03-17 03:19:00,
2013-03-16 23:24:00,37.5,36.5,29.82,NE,47,0.0,0.0,96,0.00,CLR,,0.05,WeatherDisplay:10.37,2013-03-17 03:24:00,
2013-03-16 23:29:00,37.5,36.5,29.82,NE,47,0.0,0.0,96,0.00,CLR,,0.05,WeatherDisplay:10.37,2013-03-17 03:29:00,
2013-03-16 23:34:00,37.4,36.4,29.82,NE,47,0.0,0.0,96,0.00,CLR,,0.05,WeatherDisplay:10.37,2013-03-17 03:34:00,
2013-03-16 23:39:00,37.3,36.3,29.82,NE,47,0.0,0.0,96,0.00,CLR,,0.05,WeatherDisplay:10.37,2013-03-17 03:39:00,
2013-03-16 23:44:00,37.3,36.3,29.83,NE,47,0.0,0.0,96,0.00,CLR,,0.05,WeatherDisplay:10.37,2013-03-17 03:44:00,
2013-03-16 23:49:00,37.3,36.3,29.83,NE,47,0.0,0.0,96,0.00,CLR,,0.05,WeatherDisplay:10.37,2013-03-17 03:49:00,
2013-03-16 23:54:00,37.3,36.3,29.84,NE,47,0.0,0.0,96,0.00,CLR,,0.05,WeatherDisplay:10.37,2013-03-17 03:54:00,
2013-03-16 23:59:00,37.3,36.3,29.84,NE,47,0.0,0.0,96,0.00,CLR,,0.05,WeatherDisplay:10.37,2013-03-17 03:59:00,